Location: Unspecified
(45.4615°N, 74.0512°W)
Time: 23:47:48
(UTC-04:00)

CZ-3 Stage 3 - Visible Passes

Search period start: 22 April 2018 00:00
Search period end: 02 May 2018 00:00
Orbit: 435 x 34761 km, 31.0° (Epoch: 22 April)

Date Brightness Start Highest point End Pass type
(mag) Time Alt. Az. Time Alt. Az. Time Alt. Az.
23 Apr 7.5 03:23:18 10° SSE 09:57:43 48° S 10:16:51 10° E visible
24 Apr 10.0 02:54:51 10° SE 05:43:30 26° SE 06:30:55 10° E visible
26 Apr 7.5 03:08:01 10° SSE 09:48:05 49° S 10:07:23 10° E visible
27 Apr 9.9 02:38:51 10° SE 05:33:38 27° SE 06:21:49 10° E visible
29 Apr 7.6 02:52:52 10° SSE 09:38:24 50° S 09:57:53 10° E visible
30 Apr 9.8 02:22:57 10° SE 05:23:43 28° SE 06:12:39 10° E visible
